#�ϑ�����,���ϕ���,���ϕ���,�ő啗��,�ő啗����������,�ő�u�ԕ���,�ő�u�ԕ�����������
#(�N����),(m/s)   ,(16����),(m/s)   ,(16����)        ,(m/s)       ,(16����)            
2017/10/23 0:01,16.5,16,16.8,15,31.7,16
2017/10/23 0:02,16.2,16,16.4,16,25.5,15
2017/10/23 0:03,16.9,16,16.9,16,31.3,1
2017/10/23 0:04,16.9,16,17,1,27.6,2
2017/10/23 0:05,16.9,16,17.2,16,32.1,16
2017/10/23 0:06,17.2,16,17.3,16,26.2,16
2017/10/23 0:07,17.1,16,17.9,16,34.9,2
2017/10/23 0:08,16.9,16,17.3,16,30.8,16
2017/10/23 0:09,16.1,16,16.8,16,23.7,2
2017/10/23 0:10,16.2,16,16.3,16,32.9,16
2017/10/23 0:11,16.6,16,16.6,16,32.7,16
2017/10/23 0:12,16.7,16,16.9,16,29.2,1
2017/10/23 0:18,13.6,1,13.6,1,17.4,2
2017/10/23 0:19,13.8,15,16.5,15,23.2,15
2017/10/23 0:20,13.3,16,14.7,15,23.3,2
2017/10/23 0:21,13.2,16,14,15,27.7,16
2017/10/23 0:22,14.7,16,14.7,15,35,2
2017/10/23 0:23,14.9,16,15.3,15,31.5,16
2017/10/23 0:24,14.7,16,15,15,30.2,2
2017/10/23 0:25,14.9,16,15.1,15,27.3,1
2017/10/23 0:26,14.7,1,14.9,15,21.1,1
2017/10/23 0:27,13.7,16,14.5,15,13.5,1
2017/10/23 0:28,13.6,16,13.7,15,26.4,1
2017/10/23 0:29,13.3,1,13.5,16,22.1,16
2017/10/23 0:30,13.3,1,13.3,16,22.1,1
2017/10/23 0:31,13.2,1,13.3,16,25.6,2
2017/10/23 0:32,12.6,1,13.1,16,21.2,2
2017/10/23 0:33,12.2,1,12.5,16,20.9,16
2017/10/23 0:34,11.9,16,12.3,16,23.1,16
2017/10/23 0:35,11.5,16,11.9,1,27.1,16
2017/10/23 0:36,11.4,16,11.4,1,24.8,1
2017/10/23 0:37,12.8,16,12.8,16,33.4,1
2017/10/23 0:38,13.5,16,13.5,16,32.7,1
2017/10/23 0:39,13.8,16,13.9,16,25.7,16
2017/10/23 0:40,14,16,14,16,26.2,1
2017/10/23 0:41,14.5,16,14.5,16,24.9,16
2017/10/23 0:42,14.4,16,14.6,16,28.7,16
2017/10/23 0:43,14.2,16,14.4,16,22,16
2017/10/23 0:44,14.8,16,14.8,16,26.3,16
2017/10/23 0:45,15.1,1,15.2,16,28,16
2017/10/23 0:46,15.5,1,15.5,1,24.6,1
2017/10/23 0:47,14.8,1,15.4,1,32.3,16
2017/10/23 0:48,14.1,1,14.8,1,30.7,1
2017/10/23 0:49,13.7,1,13.9,1,19.9,2
2017/10/23 0:50,13.8,1,13.9,1,34.9,16
2017/10/23 0:51,13.6,1,14,1,27.8,1
2017/10/23 0:52,13.2,1,13.6,1,17.1,15
2017/10/23 0:53,13,1,13.1,1,23.6,3
2017/10/23 0:54,12.6,1,13,1,18.5,3
2017/10/23 0:55,12.5,1,12.7,1,26.9,1
2017/10/23 0:56,12.4,1,12.6,1,24.3,1
2017/10/23 0:57,13,1,13.1,1,27.9,1
2017/10/23 0:58,12.9,1,13.3,1,28.1,2
2017/10/23 0:59,13.1,1,13.3,1,21.8,2
2017/10/23 1:00,12.7,1,13.1,1,27.8,16
2017/10/23 1:01,11.9,1,12.6,1,14.8,1
2017/10/23 1:02,11.9,1,11.9,1,17.5,1
2017/10/23 1:03,12.1,1,12.2,1,23.1,2
2017/10/23 1:04,12.6,1,12.6,1,27.7,1
2017/10/23 1:05,13,1,13,1,30.1,16
2017/10/23 1:06,12.6,1,12.9,1,17.9,15
2017/10/23 1:07,11.9,1,12.5,1,27.1,16
2017/10/23 1:08,12.1,1,12.1,1,26.9,2
2017/10/23 1:09,11.9,1,12.1,1,22.6,2
2017/10/23 1:10,11.4,1,11.9,1,16.6,1
2017/10/23 1:11,12,1,12,1,26.3,1
2017/10/23 1:12,12.5,1,12.5,1,27.9,2
2017/10/23 1:13,12.6,1,12.7,1,27.2,1
2017/10/23 1:14,12,1,12.6,1,19.6,2
2017/10/23 1:15,11.1,1,11.9,1,20.1,1
2017/10/23 1:16,10.9,1,11.1,1,13.6,16
2017/10/23 1:17,10.9,1,11,1,23.6,2
2017/10/23 1:18,10.9,1,11,1,26.5,16
2017/10/23 1:19,11.5,1,11.5,1,26.7,1
2017/10/23 1:20,12,1,12,1,24.5,2
2017/10/23 1:21,12.2,1,12.2,1,26.1,1
2017/10/23 1:22,11.9,16,12.2,1,24.4,1
2017/10/23 1:23,12.3,16,12.3,1,26.4,2
2017/10/23 1:24,12.5,16,12.6,16,26.4,2
2017/10/23 1:25,12.9,1,12.9,1,21,16
2017/10/23 1:26,13.4,1,13.4,1,20.7,2
2017/10/23 1:27,13.9,1,13.9,1,28.4,2
2017/10/23 1:28,13.7,1,14.1,1,26.2,16
2017/10/23 1:29,13.8,1,13.9,1,31.3,1
2017/10/23 1:30,14.2,1,14.3,1,24.9,1
2017/10/23 1:31,13.9,16,14.3,1,32.1,16
2017/10/23 1:32,13.8,16,13.9,1,15.8,16
2017/10/23 1:33,13.1,16,13.6,1,21.3,16
2017/10/23 1:34,13.5,16,13.5,1,38.5,2
2017/10/23 1:35,14.3,16,14.3,1,35,2
2017/10/23 1:36,14.4,16,14.5,16,26.3,1
2017/10/23 1:37,14.3,16,14.6,1,36.5,1
2017/10/23 1:38,14.8,1,14.8,1,29.6,1
2017/10/23 1:39,14.4,1,14.9,1,25.5,1
2017/10/23 1:40,14.5,1,14.5,1,31.3,2
2017/10/23 1:41,15.3,1,15.3,1,37.2,1
2017/10/23 1:42,15.8,1,15.8,1,24.5,16
2017/10/23 1:43,15.9,1,16.2,1,18.9,16
2017/10/23 1:44,15,1,15.8,1,21.1,2
2017/10/23 1:45,14.3,1,14.8,1,21.6,16
2017/10/23 1:46,13.7,1,14.3,1,17.4,16
2017/10/23 1:47,13.7,16,13.8,1,31.7,16
2017/10/23 1:48,13.3,16,13.9,1,24.5,15
2017/10/23 1:49,13.1,16,13.1,1,22.6,1
2017/10/23 1:50,13.2,16,13.4,1,26.3,1
2017/10/23 1:51,12.1,16,13.2,1,20.7,1
2017/10/23 1:52,11.9,1,12.3,1,23.3,2
2017/10/23 1:53,11.8,16,11.9,1,24.4,1
2017/10/23 1:54,12.6,1,12.6,1,24.8,16
2017/10/23 1:55,13.2,1,13.2,16,29.2,15
2017/10/23 1:56,14,1,14,1,26.8,16
2017/10/23 1:57,14.4,1,14.4,1,33.5,16
2017/10/23 1:58,14.4,1,14.6,1,33.9,16
2017/10/23 1:59,14.4,1,14.6,1,24.6,2
2017/10/23 2:00,14.1,1,14.4,1,27.3,15
2017/10/23 2:01,14.5,1,14.5,1,36.9,2
2017/10/23 2:02,14.7,16,14.7,16,28.6,1
2017/10/23 2:03,15.3,1,15.3,1,27.6,2
2017/10/23 2:04,14.9,16,15.4,1,26.2,1
2017/10/23 2:05,14.4,16,14.7,1,27.7,1
2017/10/23 2:06,14,16,14.4,1,24.1,16
2017/10/23 2:07,13.4,16,13.9,1,22,16
2017/10/23 2:08,13.5,1,13.5,1,24.5,2
2017/10/23 2:09,13.7,1,13.7,1,21.8,1
2017/10/23 2:10,13.8,1,13.8,1,21.8,1
2017/10/23 2:11,13.6,1,13.9,1,23.1,1
2017/10/23 2:12,13.7,1,13.8,1,33.5,1
2017/10/23 2:13,13.1,1,13.6,1,20.5,2
2017/10/23 2:14,13.2,1,13.2,16,26.2,2
2017/10/23 2:15,13.3,1,13.4,16,29.8,1
2017/10/23 2:16,13.5,1,13.5,16,29.4,1
2017/10/23 2:17,13.1,1,13.5,1,22.2,1
2017/10/23 2:18,13,1,13.2,1,29,1
2017/10/23 2:19,12.9,1,13,1,23.5,16
2017/10/23 2:20,12.6,1,12.9,1,32.7,3
2017/10/23 2:21,13.1,1,13.1,1,30.2,2
2017/10/23 2:22,12.8,1,13.2,1,24.3,16
2017/10/23 2:23,12.7,1,12.8,1,19.8,1
2017/10/23 2:24,12.5,1,12.7,1,22.1,16
2017/10/23 2:25,12.3,1,12.6,1,21.4,15
2017/10/23 2:26,12.2,1,12.3,1,26.5,1
2017/10/23 2:27,12.4,1,12.4,1,27.7,1
2017/10/23 2:28,12.4,1,12.4,1,29.3,2
2017/10/23 2:29,13.1,1,13.1,1,40.4,2
2017/10/23 2:30,13.2,1,13.2,1,28.1,2
2017/10/23 2:31,13.2,1,13.4,1,30.6,1
2017/10/23 2:32,13.2,16,13.3,1,24.9,16
2017/10/23 2:33,13.7,1,13.7,1,27.9,16
2017/10/23 2:34,13.8,1,13.8,1,29.4,1
2017/10/23 2:35,13.8,1,13.8,1,28.4,2
2017/10/23 2:36,13.7,1,14.1,1,26.8,1
2017/10/23 2:37,13.6,1,13.8,1,26.9,1
2017/10/23 2:38,13,1,13.5,1,17.4,2
2017/10/23 2:39,11.8,1,12.9,1,16.1,14
2017/10/23 2:41,11.1,1,11.1,1,12.7,15
2017/10/23 2:42,11,1,11.1,1,15.6,16
2017/10/23 2:43,10.6,1,11,1,21,1
2017/10/23 2:44,10.3,16,10.6,1,17.5,1
2017/10/23 2:45,10.4,16,10.6,1,25.4,16
2017/10/23 2:46,9.9,16,10.4,1,18.8,15
2017/10/23 2:47,9.4,16,9.8,1,13.6,2
2017/10/23 2:48,10,16,10,1,23,1
2017/10/23 2:49,10.4,1,10.6,1,19.6,1
2017/10/23 2:50,9.8,1,10.3,1,14.8,1
2017/10/23 2:51,9.8,1,9.9,1,21.8,2
2017/10/23 2:52,9.5,1,9.7,1,14.1,2
2017/10/23 3:13,20.6,15,20.6,15,22.4,15
2017/10/23 3:14,18.8,15,20.6,15,22.4,15
2017/10/23 3:15,9.8,16,15.1,15,23.6,16
2017/10/23 3:16,10.5,16,10.5,15,19.8,15
2017/10/23 3:17,11.7,16,11.7,15,28.6,16
2017/10/23 3:18,11.1,16,12,15,24.6,16
2017/10/23 3:19,11,16,11.2,15,21.5,16
2017/10/23 3:20,10.7,16,11,15,19.5,15
2017/10/23 3:21,10.7,16,10.7,15,16.6,16
2017/10/23 3:22,10.8,16,10.9,15,24.3,16
2017/10/23 3:24,11,16,11,16,17.5,1
2017/10/23 3:25,11,16,11,16,17.8,15
2017/10/23 3:41,5.8,15,5.8,15,8.4,15
2017/10/23 3:42,7.3,15,9.1,16,13.6,1
2017/10/23 3:43,6.5,15,6.7,16,13.3,16
2017/10/23 3:44,9.3,15,9.3,15,19.8,16
2017/10/23 3:45,10.1,15,10.1,15,26.8,16
2017/10/23 3:46,10.3,15,10.4,15,21.3,15
2017/10/23 3:47,10.3,15,10.5,15,18.9,15
2017/10/23 3:48,10.5,15,10.5,15,28.8,15
2017/10/23 3:49,11.1,15,11.1,15,31.7,16
2017/10/23 3:50,11.4,15,11.4,15,21,15
2017/10/23 3:51,11.5,15,11.5,15,19,1
2017/10/23 3:52,11.9,15,11.9,15,23.9,16
2017/10/23 3:53,12.2,15,12.2,15,18.1,14
2017/10/23 3:54,12.1,15,12.2,15,21.3,15
2017/10/23 3:55,11.6,15,12.2,15,16.2,16
2017/10/23 3:56,11.3,15,11.6,15,18,14
2017/10/23 3:57,11.2,15,11.3,15,14.8,2
2017/10/23 3:58,11.3,16,11.5,15,20.9,16
2017/10/23 3:59,10.6,16,11.3,15,17.5,16
2017/10/23 4:00,9.9,16,10.6,15,16.3,16
2017/10/23 4:01,9.6,16,9.8,15,21.3,16
2017/10/23 4:02,9.5,16,9.6,15,21.8,16
2017/10/23 4:03,9.5,16,9.5,15,17.1,16
2017/10/23 4:04,9.2,16,9.6,15,16.5,16
2017/10/23 4:05,9.6,16,9.6,15,19.5,16
2017/10/23 4:06,9.4,16,9.7,16,11.5,15
2017/10/23 4:07,9.4,16,9.5,16,11.9,14
2017/10/23 4:08,8.8,16,9.3,16,21.3,14
2017/10/23 4:09,8.8,16,8.9,16,16.9,15
2017/10/23 4:10,9,16,9,16,14.3,1
2017/10/23 4:11,8.5,16,9,16,9.8,15
2017/10/23 4:12,8,16,8.4,16,14,16
2017/10/23 4:13,8,16,8.1,16,15.7,16
2017/10/23 4:14,8.4,16,8.4,16,21.6,16
2017/10/23 4:15,8.2,16,8.3,16,17.8,16
2017/10/23 4:16,8.6,16,8.7,16,19.5,16
2017/10/23 4:17,8.4,16,8.6,16,12.3,16
2017/10/23 4:18,8.5,16,8.6,16,17.6,15
2017/10/23 4:19,8.9,16,8.9,16,19.7,16
2017/10/23 4:20,8.9,16,8.9,16,16.9,16
2017/10/23 4:21,9.5,16,9.5,16,20.2,1
2017/10/23 4:22,9.6,16,9.6,16,19.2,16
2017/10/23 4:23,9.3,16,9.8,16,25.9,15
2017/10/23 4:24,9,16,9.3,16,17.4,16
2017/10/23 4:25,8.6,16,9,16,15.3,15
2017/10/23 4:26,8.5,16,8.7,16,17.4,1
2017/10/23 4:27,9.8,16,9.8,16,31.4,16
2017/10/23 4:28,10.4,16,10.4,16,24.9,15
2017/10/23 4:29,9.7,16,10.3,16,10.1,16
2017/10/23 4:30,9.6,16,9.6,16,14.5,15
2017/10/23 4:31,9.4,16,9.7,16,18,16
2017/10/23 4:32,9.1,16,9.4,16,8.7,1
2017/10/23 4:33,8.8,16,9,16,9.1,15
2017/10/23 4:34,9,16,9,16,20.1,16
2017/10/23 4:35,9.6,16,9.6,16,20.3,16
2017/10/23 4:36,9.6,16,9.9,16,19.5,15
2017/10/23 4:37,8.9,16,9.5,16,19.2,1
2017/10/23 4:38,8.4,16,8.8,16,16.7,1
2017/10/23 4:39,9.1,16,9.1,16,17.5,16
2017/10/23 4:40,9.4,16,9.4,16,20.6,1
2017/10/23 4:41,9.6,16,9.7,16,18.3,16
2017/10/23 4:42,10.2,16,10.2,16,18.6,15
2017/10/23 4:43,11,16,11,16,25.6,16
2017/10/23 4:44,11,16,11,16,22,16
2017/10/23 4:45,11,16,11,16,19.5,16
2017/10/23 4:46,11,16,11,16,26.7,16
2017/10/23 4:47,10.6,16,10.9,16,10.7,16
2017/10/23 4:48,10.1,16,10.6,16,8.2,1
2017/10/23 4:49,9.8,16,10.1,16,13.2,15
2017/10/23 4:50,9.8,16,9.9,16,20.5,16
2017/10/23 4:51,9.3,16,9.8,16,14.7,16
2017/10/23 4:52,9.2,16,9.5,16,18,15
2017/10/23 4:53,9.2,16,9.2,16,17.6,16
2017/10/23 4:54,9,16,9.2,16,17.1,16
2017/10/23 4:55,8.7,16,9,16,16.3,15
2017/10/23 4:56,8.7,16,8.8,16,17.1,15
2017/10/23 4:57,9.2,16,9.2,16,19.5,1
2017/10/23 4:58,9.6,16,9.6,16,13.4,15
2017/10/23 4:59,9.9,16,9.9,16,20.2,1
2017/10/23 5:00,9.7,16,10.1,16,17.9,1
2017/10/23 5:01,9.8,16,9.8,16,16.9,14
2017/10/23 5:02,9.5,16,9.8,16,12.3,14
2017/10/23 5:03,9.3,16,9.5,16,13.2,2
2017/10/23 5:04,8.9,16,9.3,16,14.2,15
2017/10/23 5:05,9,16,9.2,16,19.7,16
2017/10/23 5:06,8.7,16,9,16,12.6,15
2017/10/23 5:07,8.3,16,8.6,16,15.1,16
2017/10/23 5:08,8.4,16,8.4,16,16.2,1
2017/10/23 5:09,8.4,16,8.7,16,22,15
2017/10/23 5:10,8.2,16,8.3,16,19.8,15
2017/10/23 5:11,8.7,16,8.7,16,22,16
2017/10/23 5:12,9.1,16,9.1,16,20.6,16
2017/10/23 5:13,9.3,16,9.3,16,24.3,15
2017/10/23 5:14,9.8,16,9.8,16,18.6,15
2017/10/23 5:15,9.7,16,9.7,16,19.3,15
2017/10/23 5:16,9.7,16,9.7,16,12.3,15
2017/10/23 5:17,9.8,16,9.8,16,18.4,16
2017/10/23 5:18,9.9,16,10.2,16,17.9,14
2017/10/23 5:48,10.8,16,10.8,16,13.8,1
2017/10/23 5:49,9,15,13.4,16,19.5,15
2017/10/23 5:50,8.3,16,8.7,16,12.1,15
2017/10/23 5:51,7.4,16,8.1,16,11.7,16
2017/10/23 5:52,7.3,16,7.3,16,12.2,16
2017/10/23 5:53,8,16,8.1,16,19.9,16
2017/10/23 5:54,8,16,8.1,16,13.9,14
2017/10/23 5:55,8.4,16,8.4,16,17.2,16
2017/10/23 5:56,8.3,16,8.6,16,17.2,14
2017/10/23 5:57,8,16,8.3,16,14,14
2017/10/23 5:58,8.2,16,8.3,16,18.3,15
2017/10/23 5:59,8.1,16,8.1,15,16.7,16
2017/10/23 6:00,8.4,16,8.4,16,18.8,15
2017/10/23 6:01,8.8,16,8.8,16,17.6,16
2017/10/23 6:02,9.1,16,9.2,16,19.3,16
2017/10/23 6:03,9.1,16,9.1,16,20.5,16
2017/10/23 6:04,8.8,16,9.1,16,15.8,16
2017/10/23 6:05,8.2,16,8.8,16,12.1,15
2017/10/23 6:08,3.4,1,3.4,1,4.5,16
2017/10/23 6:09,8.4,16,8.4,16,20.6,16
2017/10/23 6:10,9.2,16,9.6,16,20.3,15
2017/10/23 6:11,8.9,16,9.2,16,17.7,15
2017/10/23 6:12,8.7,16,9,16,15.6,16
2017/10/23 6:13,8.7,16,8.8,16,16.5,15
2017/10/23 6:14,9.3,16,9.3,16,25.6,15
2017/10/23 6:15,9,16,9.3,16,12.2,1
2017/10/23 6:16,9.2,16,9.3,16,19,16
2017/10/23 6:17,9.3,16,9.3,16,19,16
2017/10/23 6:18,9.6,16,9.6,16,25.7,15
2017/10/23 6:19,9.8,16,10,16,23.8,16
2017/10/23 6:20,9.6,16,9.7,16,17.8,16
2017/10/23 6:21,9.9,16,9.9,16,17.2,14
2017/10/23 6:22,10.1,16,10.2,16,22.1,1
2017/10/23 6:23,10.1,16,10.3,16,15.6,15
2017/10/23 6:24,10,16,10.2,16,17.6,16
2017/10/23 6:25,10,16,10.1,16,17.9,16
2017/10/23 6:26,9.7,16,10,16,14.2,16
2017/10/23 6:27,9.9,16,10,16,19.8,16
2017/10/23 6:28,9.7,16,10,16,16.3,15
2017/10/23 6:29,9.6,16,9.7,16,20.1,16
2017/10/23 6:30,9.7,16,9.8,16,17,16
2017/10/23 6:31,9.1,16,9.5,16,12.5,16
2017/10/23 6:32,8.7,16,9,16,11.5,16
2017/10/23 6:33,8.4,16,8.7,16,8.6,16
2017/10/23 6:34,7.6,16,8.3,16,7.8,14
2017/10/23 6:35,7.2,16,7.5,16,6.7,15
2017/10/23 6:36,6.9,16,7.2,16,9.8,15
2017/10/23 6:37,6.4,16,6.9,16,12.5,1
2017/10/23 6:38,6,16,6.4,16,9.3,15
2017/10/23 6:39,5.9,16,6,16,15.6,16
2017/10/23 6:40,5.8,16,5.9,16,14.2,16
2017/10/23 6:41,6,16,6,16,17,16
2017/10/23 6:42,6.3,16,6.3,16,15.6,16
2017/10/23 6:43,6.4,16,6.4,16,11.7,1
2017/10/23 6:44,6.9,16,6.9,16,14.2,16
2017/10/23 6:45,7.6,16,7.6,16,19.7,14
2017/10/23 6:46,8.3,16,8.3,16,24.9,15
2017/10/23 6:47,8.6,16,8.6,16,22.9,14
2017/10/23 6:48,9,16,9,16,15.2,15
2017/10/23 6:49,8.9,16,9.2,16,15,16
2017/10/23 6:50,8.7,16,8.9,16,10.9,16
2017/10/23 6:51,8.8,16,8.9,16,13.1,16
2017/10/23 6:52,8.6,16,8.7,16,12.3,16
2017/10/23 6:53,8.7,16,8.8,16,13.4,16
2017/10/23 6:54,8.4,16,8.7,16,9.5,15
2017/10/23 6:55,8,16,8.4,16,12.3,16
2017/10/23 6:56,7.8,16,8.1,16,14.3,16
2017/10/23 6:57,7.7,16,7.8,16,14.2,1
2017/10/23 6:58,7.5,16,7.6,16,14.3,2
2017/10/23 6:59,7.5,16,7.5,16,12.6,16
2017/10/23 7:00,7.6,16,7.7,16,13.5,16
2017/10/23 7:01,7.2,16,7.6,16,8.4,16
2017/10/23 7:02,6.8,16,7.2,16,5,1
2017/10/23 7:03,6.6,16,6.8,16,10.8,16
2017/10/23 7:04,6.7,16,6.8,16,9.5,1
2017/10/23 7:05,6.5,16,6.7,16,8.7,16
2017/10/23 7:06,5.9,16,6.4,16,6.5,1
2017/10/23 7:07,5.5,16,5.8,16,8.4,1
2017/10/23 7:08,5.2,16,5.5,16,6.3,15
2017/10/23 7:09,4.7,16,5.1,16,7.1,1
2017/10/23 7:10,4.5,16,4.6,16,9.3,15
2017/10/23 7:11,4.5,16,4.5,16,7.2,1
2017/10/23 7:12,4.7,16,4.7,16,8.9,16
2017/10/23 7:13,4.6,16,4.7,16,8.6,15
2017/10/23 7:14,4.7,16,4.7,16,11.5,16
2017/10/23 7:15,4.7,16,4.7,16,9.7,16
2017/10/23 7:16,5.2,16,5.2,16,10.5,15
2017/10/23 7:17,5.3,16,5.4,16,12.2,16
2017/10/23 7:24,2.5,2,2.5,2,2.5,2
2017/10/23 7:25,1.7,16,2.5,2,2.6,2
2017/10/23 7:26,3.4,1,3.4,1,6.5,2
2017/10/23 7:27,3.7,1,3.8,1,6.9,2
2017/10/23 7:57,4,15,4,15,5.7,16
2017/10/23 7:58,4.6,16,4.8,16,8.3,16
2017/10/23 7:59,4.2,16,4.6,16,8.9,1
2017/10/23 8:00,4.7,16,4.7,16,11.1,15
2017/10/23 8:01,4.9,16,4.9,16,8.5,1
2017/10/23 8:02,5.1,16,5.1,16,11.3,2
2017/10/23 8:03,5.3,16,5.3,16,10.3,3
2017/10/23 8:04,5.7,16,5.7,16,11.1,2
2017/10/23 8:05,5.7,16,5.7,16,10.1,16
2017/10/23 8:06,5.4,16,5.6,16,7.5,2
2017/10/23 8:07,5.2,16,5.3,16,6.2,15
2017/10/23 8:08,5.2,16,5.3,16,8.3,16
2017/10/23 8:09,5.2,16,5.3,16,7.9,1
2017/10/23 8:10,5,1,5.2,16,8.6,16
2017/10/23 8:11,4.8,16,5,16,6.9,1
2017/10/23 8:12,4.3,16,4.7,16,3.5,1
2017/10/23 8:13,4.1,16,4.3,16,8.9,15
2017/10/23 8:14,3.9,16,4.1,16,8.7,1
2017/10/23 8:15,3.7,16,3.8,16,8.7,16
2017/10/23 8:16,4.1,16,4.1,16,11,16
2017/10/23 8:17,4.2,16,4.2,16,7.4,16
2017/10/23 8:18,4.2,16,4.3,16,7.5,1
2017/10/23 8:19,4.2,16,4.2,16,6.5,2
2017/10/23 8:20,4.1,16,4.2,1,5.4,15
2017/10/23 8:21,4,16,4,16,4.9,15
2017/10/23 8:22,4.3,16,4.3,16,6.2,15
2017/10/23 8:31,6.8,1,6.8,1,7.1,2
2017/10/23 8:32,4.9,1,6.8,1,7.6,15
2017/10/23 8:33,5.5,16,5.5,1,6.4,15
2017/10/23 8:34,5.5,16,5.5,1,6.9,1
2017/10/23 8:37,3.4,16,3.7,16,6,15
2017/10/23 8:38,3.1,1,3.6,16,4.4,1
2017/10/23 8:39,2.4,1,2.7,16,3.3,1
2017/10/23 8:40,2.6,16,2.7,16,1.4,12
2017/10/23 8:41,2.6,16,2.7,16,2.5,10
2017/10/23 8:42,2.6,16,2.8,16,5.7,9
2017/10/23 8:43,2.9,14,2.9,16,6.5,12
2017/10/23 8:44,2.7,14,2.9,16,3.3,13
2017/10/23 8:45,2.5,15,2.7,16,2.9,1
2017/10/23 8:46,2.3,15,2.5,16,1.9,16
2017/10/23 8:47,2.3,16,2.3,16,3.1,4
2017/10/23 8:48,2.2,16,2.2,14,4.3,9
2017/10/23 8:49,2.1,16,2.2,14,3,8
2017/10/23 8:50,2.1,1,2.2,14,5.6,2
2017/10/23 8:51,2.2,1,2.2,14,4.4,16
2017/10/23 8:52,2.3,2,2.4,14,5.7,3
2017/10/23 8:53,2.6,2,2.6,14,13.8,16
2017/10/23 8:54,2.9,2,2.9,2,14.3,1
2017/10/23 8:55,3,2,3,2,6,16
2017/10/23 8:56,3.2,2,3.2,2,8.4,13
2017/10/23 8:57,3.5,1,3.5,1,8.6,15
2017/10/23 8:58,3.6,1,3.6,1,9.1,1
2017/10/23 8:59,3.8,1,3.8,1,5.6,15
2017/10/23 9:00,4,16,4,1,7,15
2017/10/23 9:01,4.2,16,4.2,16,8.3,2
2017/10/23 9:02,4.1,16,4.1,16,6.8,1
2017/10/23 9:03,3.6,16,4.1,16,6.8,1
2017/10/23 9:28,1.9,1,1.9,1,2.4,1
2017/10/23 9:29,2.5,1,2.5,1,5.5,2
2017/10/23 9:30,4.5,16,4.5,16,9.9,16
2017/10/23 9:31,3.9,1,4.5,16,8.6,15
2017/10/23 9:32,4.7,16,4.7,16,13.4,16
2017/10/23 9:33,4.6,16,4.9,16,9.2,12
2017/10/23 9:34,3.9,15,4.5,16,2.2,12
2017/10/23 9:35,3.7,16,3.8,16,5,3
2017/10/23 9:36,3.9,16,3.9,16,11.1,15
2017/10/23 9:37,3.9,16,3.9,16,10.2,1
2017/10/23 9:38,4,16,4.1,16,10,1
2017/10/23 9:39,4,16,4,16,6.2,15
2017/10/23 9:40,4,16,4.1,16,7.7,16
2017/10/23 9:41,4,16,4.1,16,6.4,1
2017/10/23 9:42,3.9,16,4,16,9.3,16
2017/10/23 9:43,3.9,16,3.9,16,7.2,15
2017/10/23 9:44,4,16,4,16,4.1,16
2017/10/23 9:45,4,16,4.1,16,8.4,15
2017/10/23 9:46,4.2,16,4.2,16,11.3,16
2017/10/23 9:47,4.4,16,4.4,16,10.9,16
2017/10/23 9:50,1.5,4,1.5,4,3,3
2017/10/23 9:51,3.3,3,3.3,3,6.3,1
2017/10/23 9:52,3.4,2,3.5,2,6,1
2017/10/23 9:53,3.9,1,3.9,1,7.5,14
2017/10/23 9:54,4,1,4.1,1,8.1,16
2017/10/23 9:55,3.8,1,4,1,5.4,14
2017/10/23 9:56,3.9,1,4,1,7.9,2
2017/10/23 9:57,4,1,4,1,10.1,1
2017/10/23 9:58,4.2,1,4.2,1,11.8,15
2017/10/23 9:59,4.1,1,4.2,1,10.3,15
2017/10/23 10:00,4,1,4.1,1,6.8,15
2017/10/23 10:01,4.1,16,4.1,1,8.5,1
2017/10/23 10:02,4.5,16,4.5,16,13.9,15
2017/10/23 10:03,4.5,16,4.6,16,14,16
2017/10/23 10:04,4.5,16,4.5,16,7.2,16
2017/10/23 10:05,5.1,16,5.1,16,13.3,16
2017/10/23 10:06,5.3,16,5.3,16,10.6,1
2017/10/23 10:07,5.5,16,5.5,16,9.5,15
2017/10/23 10:08,5.5,16,5.6,16,12.8,16
2017/10/23 10:09,5.7,16,5.7,16,11.1,15
2017/10/23 10:10,6.2,16,6.2,16,15.8,2
2017/10/23 10:11,6.3,16,6.4,16,9.9,16
2017/10/23 10:12,6.2,16,6.3,16,12.8,16
2017/10/23 10:13,6.3,16,6.3,16,10.3,1
2017/10/23 10:14,6.5,16,6.5,16,10.1,16
2017/10/23 10:15,6.1,16,6.5,16,8.9,15
2017/10/23 10:16,5.9,16,6.1,16,9.7,16
2017/10/23 10:17,6,16,6,16,12.2,16
2017/10/23 10:18,6.2,16,6.2,16,11.1,16
2017/10/23 10:19,6.2,16,6.2,16,9.2,14
2017/10/23 10:20,5.8,16,6.1,16,10.1,15
2017/10/23 10:21,5.7,16,5.9,16,10.5,16
2017/10/23 10:22,5.6,16,5.8,16,6.7,1
2017/10/23 10:23,5.3,16,5.6,16,7.1,2
2017/10/23 10:24,5.3,16,5.4,16,11,16
2017/10/23 10:25,5.5,16,5.6,16,9.9,15
2017/10/23 10:26,5.5,16,5.5,16,11.5,15
2017/10/23 10:27,5.2,16,5.5,16,7.7,15
2017/10/23 10:28,5.1,16,5.2,16,12.6,16
2017/10/23 10:29,5.1,16,5.1,16,13.2,16
2017/10/23 10:30,5.1,16,5.1,16,7.5,1
2017/10/23 10:31,5.1,16,5.1,16,11.1,16
2017/10/23 10:32,5.3,16,5.3,16,11.1,15
2017/10/23 10:33,5.6,16,5.6,16,14.5,15
2017/10/23 10:34,5.3,16,5.6,16,8.6,15
2017/10/23 10:35,5.1,16,5.2,16,6.7,1
2017/10/23 10:36,5.1,16,5.1,16,12.2,16
2017/10/23 10:37,5.4,16,5.4,16,11.7,16
2017/10/23 10:38,5.5,16,5.6,16,10.9,1
2017/10/23 10:39,5.6,16,5.6,16,14.1,16
2017/10/23 10:40,6.2,16,6.2,16,16,16
2017/10/23 10:41,6.6,16,6.6,16,14.3,2
2017/10/23 10:42,6.6,16,6.8,16,12.1,15
2017/10/23 10:43,6.1,16,6.6,16,8.1,1
2017/10/23 10:44,6.2,16,6.2,16,10.6,16
2017/10/23 10:45,6.5,16,6.5,16,12.4,2
2017/10/23 10:46,6.4,16,6.5,16,9.7,16
2017/10/23 10:47,6.3,16,6.5,16,11.3,1
2017/10/23 10:48,6.3,16,6.4,16,14.7,16
2017/10/23 10:49,6.3,16,6.4,16,15.3,16
2017/10/23 10:50,6.2,16,6.3,16,13.6,16
2017/10/23 10:51,6,16,6.3,16,12.5,15
2017/10/23 10:52,6,16,6,16,13.5,15
2017/10/23 10:53,6.3,16,6.3,16,8.5,1
2017/10/23 10:54,6.4,16,6.4,16,8.4,16
2017/10/23 10:55,6.2,16,6.4,16,8.6,16
2017/10/23 10:56,6.4,16,6.4,16,10.1,2
2017/10/23 10:57,6.4,16,6.4,16,13.5,15
2017/10/23 10:58,6.4,16,6.4,16,11.5,15
2017/10/23 10:59,6.3,16,6.4,16,12.5,1
2017/10/23 11:00,6.2,16,6.3,16,12.4,15
2017/10/23 11:01,5.9,16,6.2,16,9.3,1
2017/10/23 11:02,6,16,6,16,10.5,2
2017/10/23 11:03,6.1,16,6.1,16,12.7,16
2017/10/23 11:04,6.1,16,6.1,16,10,16
2017/10/23 11:05,6.3,16,6.3,16,13.3,14
2017/10/23 11:06,6.6,16,6.6,16,12.4,12
2017/10/23 11:07,6.6,16,6.8,16,9.7,13
2017/10/23 11:08,6.1,16,6.5,16,4.1,12
2017/10/23 11:09,5.9,16,6,16,7.7,1
2017/10/23 11:10,5.6,16,5.9,16,9.4,2
2017/10/23 11:11,5.5,16,5.6,16,6.8,16
2017/10/23 11:12,5.5,16,5.5,16,13.6,16
2017/10/23 11:13,5.7,16,5.7,16,14.8,16
2017/10/23 11:14,5.7,16,5.7,16,12.3,1
2017/10/23 11:15,5.6,16,5.7,16,11.6,1
2017/10/23 11:16,5.5,16,5.6,16,13.6,15
2017/10/23 11:17,5.8,1,5.8,16,15.2,16
2017/10/23 11:18,6.3,1,6.3,1,14.3,16
2017/10/23 11:19,6.6,1,6.6,1,11.9,2
2017/10/23 11:20,6.8,1,6.9,1,12.7,1
2017/10/23 11:21,7.2,1,7.2,1,12.4,1
2017/10/23 11:22,7.1,1,7.2,1,12.1,16
2017/10/23 11:23,7,1,7,1,11.7,16
2017/10/23 11:24,7.1,1,7.1,1,10.7,2
2017/10/23 11:25,7.1,1,7.2,1,11.1,1
2017/10/23 11:26,6.7,1,7.1,1,7.1,3
2017/10/23 11:27,6.3,1,6.7,1,8.4,2
2017/10/23 11:28,6.3,1,6.3,1,13,1
2017/10/23 11:29,6.1,1,6.3,1,8.6,16
2017/10/23 11:30,5.9,1,6.1,1,8.7,1
2017/10/23 11:31,5.8,1,5.9,1,9.1,16
2017/10/23 11:32,5.6,1,5.8,1,6.4,2
2017/10/23 11:33,5.3,1,5.6,1,11.7,2
2017/10/23 11:34,5.3,1,5.3,1,15.7,16
2017/10/23 11:35,5.3,1,5.4,1,14.3,16
2017/10/23 11:36,5.3,1,5.4,1,11.3,1
2017/10/23 11:37,5.3,1,5.4,1,6.9,2
2017/10/23 11:38,5.3,1,5.4,1,14,1
2017/10/23 11:39,5.2,1,5.3,1,9,15
2017/10/23 11:40,5,1,5.3,1,7.9,16
2017/10/23 11:41,4.8,1,5,1,6.2,3
2017/10/23 11:42,4.5,1,4.7,1,2.4,16
2017/10/23 11:43,4.5,16,4.5,1,7.4,13
2017/10/23 11:44,4.2,16,4.5,1,16.2,12
2017/10/23 11:45,3.9,16,4.1,1,7.5,14
2017/10/23 11:46,3.7,16,3.8,1,4.3,1
2017/10/23 11:47,3.6,16,3.7,1,5.6,1
2017/10/23 11:56,11.1,16,14.4,1,15.3,1
2017/10/23 11:57,7.9,16,9.3,1,15,16
2017/10/23 11:58,6.6,16,7.6,1,10.6,16
2017/10/23 11:59,5.8,1,6.6,1,10,16
2017/10/23 12:00,5.8,16,5.9,1,8.9,16
2017/10/23 12:01,5.1,1,5.8,1,7,16
2017/10/23 12:02,5.4,1,5.4,1,14.4,2
2017/10/23 12:03,5.5,1,5.5,1,12.2,1
2017/10/23 12:05,5.5,1,5.5,1,10.6,15
2017/10/23 12:08,9.2,16,9.2,16,9.3,16
2017/10/23 12:09,9.4,16,10.3,16,11.8,16
2017/10/23 12:10,7.3,16,9.4,16,10.6,15
2017/10/23 12:15,7.8,16,7.8,16,7.8,16
2017/10/23 12:16,6.7,15,7.8,16,10,15
2017/10/23 12:17,6.2,15,6.8,16,9.2,15
2017/10/23 12:18,5.3,15,6.1,16,6.4,12
2017/10/23 12:19,4.9,15,5.3,16,6.7,1
2017/10/23 12:20,4.8,16,5.1,16,12.3,16
2017/10/23 12:21,4.9,16,4.9,16,9.4,1
2017/10/23 12:22,5.2,16,5.2,16,10.7,16
2017/10/23 12:23,5.7,16,5.7,16,13.1,16
2017/10/23 12:24,5.5,16,5.7,16,7.6,2
2017/10/23 12:25,5.4,16,5.6,16,9.9,12
2017/10/23 12:26,5,16,5.4,15,6,8
2017/10/23 12:27,4.7,16,5,15,3.8,9
2017/10/23 12:28,4.5,1,4.7,16,3.1,9
2017/10/23 12:29,4.3,4,4.5,16,2.6,8
2017/10/23 12:30,4,7,4.2,16,3.2,7
2017/10/23 12:31,3.8,7,4,16,4.2,4
2017/10/23 12:32,3.4,7,3.8,16,7.6,1
2017/10/23 12:33,3.3,7,3.4,16,14.5,2
2017/10/23 12:34,3.8,6,3.8,16,14.3,1
2017/10/23 12:35,4.1,5,4.1,16,13,14
2017/10/23 12:36,4,3,4.1,16,6.5,1
2017/10/23 12:37,4,2,4,1,4.5,1
2017/10/23 12:38,4.2,2,4.2,1,6.3,16
2017/10/23 12:39,4.3,1,4.3,2,6.9,16
2017/10/23 12:40,4.3,1,4.3,2,3.9,1
2017/10/23 12:44,2.2,1,2.2,1,2.7,2
2017/10/23 12:45,1.8,1,2.3,16,7.9,15
2017/10/23 12:46,2.8,16,2.8,16,5.7,16
2017/10/23 12:47,3.3,16,3.3,16,7,16
2017/10/23 12:48,3.6,16,3.6,16,7.2,14
2017/10/23 12:49,3.4,15,3.6,16,5.7,13
2017/10/23 12:50,3.1,15,3.4,16,2,11
2017/10/23 12:51,2.7,15,3,16,2.2,16
2017/10/23 12:52,2.4,15,2.7,16,1.6,6
2017/10/23 12:53,2.3,15,2.4,16,1.9,7
2017/10/23 12:54,2.2,14,2.2,16,3.9,12
2017/10/23 12:55,2.3,14,2.3,16,3.7,15
2017/10/23 12:56,2,14,2.3,16,4.8,15
2017/10/23 12:57,1.9,14,2,16,5.6,2
2017/10/23 12:58,2,15,2.1,16,7.4,4
2017/10/23 12:59,1.9,15,2,15,4.1,16
2017/10/23 13:00,1.9,16,1.9,15,3.3,1
2017/10/23 13:01,2.2,15,2.2,15,6.4,14
2017/10/23 13:02,2.3,15,2.3,15,6.9,7
2017/10/23 13:03,2.5,16,2.5,15,7.5,8
2017/10/23 13:04,2.9,16,2.9,16,8.2,13
2017/10/23 13:05,3.1,14,3.1,15,7.8,13
2017/10/23 13:06,3.4,13,3.4,13,7.6,13
2017/10/23 13:07,3.4,13,3.4,13,4.5,15
2017/10/23 13:08,3.3,13,3.4,13,7.7,15